Flag for U.S.A. Weather past 2 weeks in Fort Lauderdale, Florida, U.S.A.

Now
65 °F

Passing clouds.


Feels Like: 65 °F
Forecast: 67 / 74 °F
Wind: 15 mph from Southeast

Location: Fort Lauderdale / Hollywood International Airport

Current Time: Feb 1, 2015 at 5:50:25 AM

Latest Report: Feb 1, 2015 at 4:53 AM


Visibility: 10 mi

Pressure: 30.19 "Hg

Humidity: 56%

Dew point: 49 °F

Location of Fort LauderdaleLocation

Historic Weather in Fort Lauderdale — Graph

°F

Fort Lauderdale temperature yesterday

Maximum temperature yesterday: 72 °F (at 11:53 AM)
Minimum temperature yesterday: 58 °F (at 6:53 AM)
Average temperature yesterday: 66 °F

Past Weeks' High & Low Weather Summary

 TemperatureHumidityPressure
High79 °F (Jan 21, 12:53 PM)97% (Jan 17, 5:53 AM)30.27 "Hg (Jan 17, 5:53 AM)
Low49 °F (Jan 25, 6:53 AM)27% (Jan 28, 3:53 PM)29.84 "Hg (Jan 26, 2:53 PM)
Average66 °F67%30.08 "Hg
* Reported Jan 17 3:53 AM — Feb 1 3:53 AM, Fort Lauderdale, Weather by CustomWeather, © 2014

Note: Actual official high and low records may vary slightly from our data, if they occured in-between our weather recording intervals... More about our weather records

Advertising

Fort Lauderdale weather history for previous 24 hours

 ConditionsComfort  
Time TempWeatherWind HumidityBarometerVisibility
3:53 AM
Feb 1
67 °FPartly cloudy.17 mph55%30.18 "Hg10 mi
2:53 AM67 °FPartly cloudy.16 mph59%30.18 "Hg10 mi
1:53 AM67 °FPartly cloudy.12 mph63%30.19 "Hg10 mi
12:53 AM67 °FPassing clouds.14 mph59%30.20 "Hg10 mi
11:53 PM
Jan 31
66 °FPassing clouds.14 mph59%30.22 "Hg10 mi
10:53 PM67 °FPassing clouds.15 mph57%30.23 "Hg10 mi
9:53 PM67 °FPassing clouds.16 mph53%30.23 "Hg10 mi
8:53 PM67 °FPassing clouds.13 mph57%30.23 "Hg10 mi
7:53 PM67 °FPassing clouds.14 mph55%30.22 "Hg10 mi
6:53 PM67 °FPartly cloudy.10 mph55%30.22 "Hg10 mi
5:53 PM67 °FBroken clouds.10 mph55%30.21 "Hg10 mi
4:53 PM70 °FBroken clouds.14 mph53%30.20 "Hg10 mi
3:53 PM70 °FPartly sunny.15 mph57%30.19 "Hg10 mi
2:53 PM72 °FBroken clouds.13 mph46%30.19 "Hg10 mi
1:53 PM72 °FPassing clouds.14 mph49%30.19 "Hg10 mi
12:53 PM72 °FScattered clouds.15 mph52%30.21 "Hg10 mi
11:53 AM72 °FBroken clouds.12 mph52%30.22 "Hg10 mi
10:53 AM71 °FPartly sunny.16 mph55%30.23 "Hg10 mi
9:53 AM68 °FBroken clouds.No wind63%30.22 "Hg10 mi
8:53 AM62 °FScattered clouds.5 mph73%30.20 "Hg10 mi
7:53 AM58 °FPassing clouds.8 mph81%30.18 "Hg10 mi
6:53 AM58 °FPassing clouds.7 mph78%30.17 "Hg10 mi
5:53 AM59 °FPassing clouds.6 mph72%30.15 "Hg10 mi
Weather by CustomWeather, © 2014

See weather overviewHow to use our weather pages